SL-16 DEB, 39845

Orbit data source: Space-Track

SL-16 DEB, 39845 is space debris in LEO originally from a launch on Fri, 25 Dec 1992 UTC launched from the Tyuratam Missile And Space Complex (TTMTR). Debris objects in space refer to the collection of defunct objects orbiting the Earth. Examples of debris include non-operational satellites, rocket bodies, and fragments generated from explosions, collisions, or faulty payload assembly.

Loading next visibility...
Identifier
39845, 1992-093KX
Orbit
LEO
Country
Flag of CISCIS
Related business
Manufacturer
Unknown
Mission
Spacecraft
Bus & Motor
Unknown
Mass
Unknown
Launch date (UTC)
1992-12-25 (33 years ago)
Launch vehicle
Unknown
Launch site
Tyuratam Missile And Space Complex (TTMTR)
Object type
Payload
Rocket body
Debris
Shape & HBR
Unknown shape, 0.1 m
Radar Cross Section
Small (<0.1 m²)

Expand to show TLE details & history
Last TLE update: 2 weeks ago

TLE from 2 weeks ago
0 SL-16 DEB
1 39845U 92093KX  25342.65048841  .00003780  00000-0  19508-2 0  9997
2 39845  70.9807 110.6999 0125069 259.5588  99.1418 14.11726990129051
Epoch: 2025-12-08T15:36Z
TLE epoch observation values (Epoch: 2025-12-08T15:36:42.198Z)
Latitude
-0.0001°
Longitude
158.87757°
Altitude
871.335 km
Speed
7.409 km/s
True Right ascension
07h 22m 47s
True Declination
0° 00' 00"
Sunlit
Object was in full shadow at epoch
Visualization orbit readout
Latitude
Unknown
Longitude
Unknown
Altitude
Unknown
Speed
Unknown
Apparent Right ascension
Unknown
Apparent Declination
Unknown
Sunlit
N/A
Visualization observer readout
Local Sidereal Time
03:53:31
Azimuth
Unknown
Elevation
Unknown
Doppler factor
Unknown
Orbital elements
Apogee altitude
941.817 km
Perigee altitude
760.978 km
Semi-major axis
7,229.534 km
Eccentricity
0.01251
Inclination
70.9807°
RAAN
110.6999°
Arg. of periapsis
259.5588°
True anomaly
100.55313°
Mean anomaly
99.1418°
Eccentric anomaly
99.84783°
Mean motion
3.53084 °/min
Orbital period
101.96 mins
BSTAR
0.0019508
Loading maneuver chart data...
Computing Atmospheric mass density...
Loading historical data...
Loading historical data...
Loading historical data...
Loading historical data...
Loading historical data...
Loading historical data...
Loading historical data...

Documentation

Showing up to 5 results
|